Location: Johnson City
(36.3130°N, 82.3540°W)
Time: 22:34:35
(UTC-04:00)

Amateur Radio Satellites - All Passes

Search period start: 24 July 2017 22:04
Search period end: 25 July 2017 22:04
Location: Johnson City, 36.3130°N, 82.3540°W

Satellite Date Start Highest point End Downlink Frequencies (MHz)
Time Altitude Azimuth
Oscar 11 24 Jul 22:14:36 22:18:18 28° 263° (W) 22:22:02 .
AO-73 24 Jul 22:29:22 22:32:00 15° 267° (W) 22:34:37 145.935
ISS 24 Jul 22:40:41 22:43:13 21° 330° (NNW) 22:45:46 437.550
UNISAT 6 24 Jul 22:48:00 22:51:41 27° 96° (E) 22:55:17 437.425
PRISM 24 Jul 22:53:00 22:56:26 25° 96° (E) 22:59:51 437.425
FO-29 24 Jul 22:57:35 23:04:39 70° 101° (E) 23:10:48 435.910
BEESAT 3 24 Jul 23:00:34 23:04:32 65° 242° (WSW) 23:08:24 437.485
DELFI C3 24 Jul 23:04:05 23:07:29 28° 263° (W) 23:10:54 145.870
ESTCUBE 1 24 Jul 23:17:22 23:20:34 20° 68° (ENE) 23:23:47 437.505/2401.250
nSIGHT-1 24 Jul 23:25:14 23:26:12 11° 338° (NNW) 23:27:10 .
JUGNU 24 Jul 23:30:50 23:31:54 10° 167° (SSE) 23:32:59 437.505
TIGRISAT 24 Jul 23:31:53 23:36:12 85° 100° (E) 23:40:27 435.000
AO-85 24 Jul 23:36:21 23:40:02 27° 247° (WSW) 23:43:57 145.980
EO-88 24 Jul 23:38:06 23:40:21 16° 266° (W) 23:42:37 145.990 - 145.960
BEESAT 2 24 Jul 23:39:22 23:43:26 77° 241° (WSW) 23:47:25 435.950
LO-87 24 Jul 23:41:57 23:45:30 59° 75° (ENE) 23:49:06 145.935 - 145.965
RS-15 24 Jul 23:45:05 23:54:40 26° 32° (NNE) 00:03:52 29.354- 29.394
M-CUBED/EXP-1 PRIME 24 Jul 23:51:34 23:56:04 49° 104° (ESE) 00:00:35 437.505
VELOX 1 25 Jul 00:05:33 00:07:52 14° 65° (ENE) 00:10:10 145.980
AIST 2D 25 Jul 00:22:00 00:25:14 35° 98° (E) 00:28:27 435.315
UNISAT 6 25 Jul 00:24:55 00:28:13 22° 291° (WNW) 00:31:29 437.425
PRISM 25 Jul 00:28:16 00:31:34 23° 291° (WNW) 00:34:51 437.425
FO-29 25 Jul 00:44:03 00:48:46 20° 301° (WNW) 00:53:10 435.910
DUCHIFAT 1 25 Jul 00:49:41 00:53:09 25° 96° (E) 00:56:36 145.980
50 SAT 25 Jul 00:49:44 00:51:22 13° 68° (ENE) 00:53:00 437.505
POLYITAN 1 25 Jul 00:51:26 00:55:16 34° 98° (E) 00:59:03 437.675
ESTCUBE 1 25 Jul 00:53:04 00:57:06 33° 262° (W) 01:01:10 437.505/2401.250
SPROUT 25 Jul 00:56:38 01:00:52 61° 75° (ENE) 01:05:06 437.525
O/OREOS (USA 219) 25 Jul 00:57:43 00:59:46 13° 57° (ENE) 01:01:48 437.305
QB50P2 25 Jul 01:04:13 01:08:22 55° 100° (E) 01:12:28 145.880/145.840
EO-79 25 Jul 01:16:20 01:20:32 70° 102° (ESE) 01:24:41 145.935-145.965
NANOSAT C BR1 25 Jul 01:16:35 01:20:44 63° 101° (E) 01:24:51 145.865
JUGNU 25 Jul 01:16:43 01:20:06 15° 177° (S) 01:23:29 437.505
BUGSAT 1 25 Jul 01:20:38 01:22:57 15° 93° (E) 01:25:14 437.445
M-CUBED/EXP-1 PRIME 25 Jul 01:27:08 01:30:04 17° 298° (WNW) 01:33:00 437.505
VELOX 1 25 Jul 01:39:36 01:43:51 48° 260° (W) 01:48:09 145.980
DX 1 25 Jul 01:45:50 01:50:05 56° 74° (ENE) 01:54:23 434.975-435.025
AIST 2D 25 Jul 01:57:06 01:58:04 11° 292° (WNW) 01:59:01 435.315
RS-15 25 Jul 01:57:23 02:09:30 78° 59° (ENE) 02:20:56 29.354- 29.394
SRMSAT 25 Jul 02:19:35 02:20:38 10° 167° (SSE) 02:21:42 437.500
50 SAT 25 Jul 02:20:53 02:23:48 27° 263° (W) 02:26:46 437.505
Tancredo 1 25 Jul 02:24:42 02:25:52 12° 25° (NNE) 02:27:02 437.200
DUCHIFAT 1 25 Jul 02:25:26 02:28:40 22° 291° (WNW) 02:31:54 145.980
POLYITAN 1 25 Jul 02:28:00 02:30:44 17° 293° (WNW) 02:33:28 437.675
UKube-1 25 Jul 02:28:57 02:33:13 70° 257° (WSW) 02:37:33 .
O/OREOS (USA 219) 25 Jul 02:35:07 02:39:31 57° 253° (WSW) 02:43:56 437.305
ITUPSAT 1 25 Jul 02:35:53 02:38:03 13° 64° (ENE) 02:40:13 437.325
QB50P2 25 Jul 02:42:21 02:43:37 11° 295° (WNW) 02:44:53 145.880/145.840
BUGSAT 1 25 Jul 02:54:40 02:58:24 35° 288° (WNW) 03:02:05 437.445
JUGNU 25 Jul 03:05:16 03:08:20 14° 187° (S) 03:11:22 437.505
Oscar 19 25 Jul 03:05:38 03:10:49 88° 107° (ESE) 03:16:00 437.125/150
MOZHAYETS 4 25 Jul 03:23:27 03:27:21 28° 70° (ENE) 03:31:16
DX 1 25 Jul 03:25:30 03:26:34 11° 268° (W) 03:27:38 434.975-435.025
Gurwin Techsat 1B 25 Jul 03:30:03 03:35:24 87° 285° (WNW) 03:40:43 435.225
ISS 25 Jul 03:33:48 03:36:16 19° 30° (NNE) 03:38:43 437.550
AO-7 25 Jul 03:38:10 03:43:36 19° 93° (E) 03:48:59 .
BEESAT 25 Jul 03:57:22 04:02:09 84° 258° (WSW) 04:06:57 436.000
Tancredo 1 25 Jul 03:58:41 04:01:38 87° 226° (SW) 04:04:35 437.200
CUBESAT XI-V 25 Jul 03:59:39 04:01:40 13° 65° (ENE) 04:03:40 437.345
SRMSAT 25 Jul 04:05:41 04:08:59 15° 177° (S) 04:12:18 437.500
ITUPSAT 1 25 Jul 04:10:34 04:15:18 62° 259° (WSW) 04:20:03 437.325
RS-15 25 Jul 04:11:41 04:20:32 26° 259° (W) 04:29:07 29.354- 29.394
nSIGHT-1 25 Jul 04:15:43 04:18:50 45° 37° (NE) 04:21:57 .
PCSat 25 Jul 04:34:32 04:37:47 16° 104° (ESE) 04:41:02 145.827
Oscar 19 25 Jul 04:48:45 04:49:21 10° 299° (WNW) 04:49:56 437.125/150
ITAMSAT 1 25 Jul 04:56:48 05:02:00 72° 103° (ESE) 05:07:10 435.822/435.867
MOZHAYETS 4 25 Jul 05:00:47 05:04:27 24° 265° (W) 05:08:08
YUBILEINY 25 Jul 05:07:14 05:11:34 14° 63° (ENE) 05:15:53 435.215
ISS 25 Jul 05:09:45 05:12:52 43° 226° (SW) 05:15:59 437.550
AO-7 25 Jul 05:28:42 05:37:06 81° 290° (WNW) 05:45:25 .
CUBESAT XI-V 25 Jul 05:34:01 05:38:30 57° 260° (W) 05:43:02 437.345
DOVE 4 25 Jul 05:38:33 05:40:04 11° 89° (E) 05:41:34 437.250
KKS-1 25 Jul 05:41:23 05:45:51 85° 257° (WSW) 05:50:21 437.445
nSIGHT-1 25 Jul 05:53:09 05:54:56 14° 232° (SW) 05:56:43 .
SRMSAT 25 Jul 05:54:26 05:57:21 14° 187° (S) 06:00:17 437.500
STARS 25 Jul 06:11:23 06:15:48 84° 77° (ENE) 06:20:16 437.465
PCSat 25 Jul 06:15:18 06:20:38 58° 300° (WNW) 06:25:59 145.827
SO-50 25 Jul 06:35:19 06:39:34 41° 115° (ESE) 06:43:48 436.795
XW-2B 25 Jul 06:35:39 06:37:08 12° 93° (E) 06:38:38 145.730 - 145.750
ITAMSAT 1 25 Jul 06:38:31 06:40:47 13° 298° (WNW) 06:43:05 435.822/435.867
CUTE-I 25 Jul 06:44:57 06:48:31 18° 93° (E) 06:52:05 437.470
STRAND 1 25 Jul 06:46:26 06:48:38 13° 62° (ENE) 06:50:50 437.568
XW-2C 25 Jul 06:51:47 06:54:37 20° 95° (E) 06:57:27 145.795 - 145.815
NUDT-PHONESAT 25 Jul 06:59:53 07:02:28 18° 95° (E) 07:05:03 437.300
YUBILEINY 25 Jul 07:00:57 07:09:46 82° 83° (E) 07:18:28 435.215
DOVE 4 25 Jul 07:13:00 07:18:15 73° 284° (WNW) 07:23:16 437.250
KAITUO 1B 25 Jul 07:13:40 07:16:55 28° 97° (E) 07:20:10 145.475/437.950
LilacSat-2 25 Jul 07:14:28 07:18:06 43° 99° (E) 07:21:43 437.200
AO-7 25 Jul 07:23:48 07:28:34 17° 308° (NW) 07:33:18 .
XW-2F 25 Jul 07:28:56 07:32:39 61° 101° (E) 07:36:22 145.980 - 146.000
XW-2D 25 Jul 07:57:46 08:01:24 47° 285° (WNW) 08:05:01 145.860 - 145.880
XW-2B 25 Jul 08:07:58 08:11:27 36° 286° (WNW) 08:14:55 145.730 - 145.750
SO-50 25 Jul 08:16:46 08:20:10 20° 311° (NW) 08:23:33 436.795
XW-2A 25 Jul 08:17:40 08:19:54 17° 95° (E) 08:22:07 145.665 - 145.685
STRAND 1 25 Jul 08:22:01 08:27:09 72° 258° (WSW) 08:32:18 437.568
CUTE-I 25 Jul 08:23:39 08:28:47 49° 288° (WNW) 08:33:55 437.470
XW-2C 25 Jul 08:25:47 08:28:42 22° 289° (WNW) 08:31:38 145.795 - 145.815
CUBEBUG 2 25 Jul 08:26:54 08:30:10 21° 95° (E) 08:33:21 437.445
HO-68 25 Jul 08:29:20 08:36:18 52° 101° (E) 08:43:12 435.675
NUDT-PHONESAT 25 Jul 08:33:21 08:36:17 23° 289° (WNW) 08:39:14 437.300
CUTE 1.7 + AOD 2 25 Jul 08:46:04 08:50:19 81° 102° (ESE) 08:54:34 437.475
KAITUO 1B 25 Jul 08:48:25 08:50:40 15° 291° (WNW) 08:52:54 145.475/437.950
LilacSat-2 25 Jul 08:50:51 08:51:57 11° 293° (WNW) 08:53:03 437.200
SEEDS 25 Jul 08:58:12 09:02:24 69° 101° (E) 09:06:37 437.485
YUBILEINY 25 Jul 09:00:11 09:05:22 17° 281° (W) 09:10:33 435.215
FO-29 25 Jul 09:05:45 09:11:57 28° 63° (ENE) 09:18:18 435.910
UWE-3 25 Jul 09:24:06 09:28:13 59° 100° (E) 09:32:17 435.000/436.395/437.385
ZACube-1 25 Jul 09:37:42 09:41:40 44° 99° (E) 09:45:37 437.345
PRISM 25 Jul 09:41:06 09:43:01 13° 66° (ENE) 09:44:55 437.425
AAUSAT CUBESAT 2 25 Jul 09:41:33 09:45:44 82° 282° (WNW) 09:49:54 437.432
UNISAT 6 25 Jul 09:44:27 09:47:47 20° 68° (ENE) 09:51:06 437.425
XW-2A 25 Jul 09:50:03 09:52:32 20° 289° (WNW) 09:55:00 145.665 - 145.685
CUBEBUG 2 25 Jul 10:03:13 10:06:43 25° 290° (WNW) 10:10:09 437.445
Oscar 11 25 Jul 10:03:29 10:07:45 61° 100° (E) 10:12:01 .
AO-73 25 Jul 10:17:45 10:21:51 64° 284° (WNW) 10:25:55 145.935
HO-68 25 Jul 10:17:47 10:23:36 28° 297° (WNW) 10:29:24 435.675
TIGRISAT 25 Jul 10:27:17 10:31:48 53° 75° (ENE) 10:36:16 435.000
M-CUBED/EXP-1 PRIME 25 Jul 10:35:27 10:38:41 33° 66° (ENE) 10:42:11 437.505
DELFI C3 25 Jul 10:42:55 10:46:42 39° 98° (E) 10:50:27 145.870
FO-29 25 Jul 10:48:56 10:56:20 60° 260° (W) 11:04:08 435.910
EO-88 25 Jul 11:07:40 11:11:12 48° 99° (E) 11:14:44 145.990 - 145.960
PRISM 25 Jul 11:13:58 11:17:51 44° 260° (W) 11:21:48 437.425
ZACube-1 25 Jul 11:15:39 11:17:32 13° 294° (WNW) 11:19:24 437.345
NO-84 25 Jul 11:16:00 11:18:50 49° 130° (SE) 11:21:53 435.350 FM
UNISAT 6 25 Jul 11:19:56 11:24:13 36° 262° (W) 11:28:28 437.425
DUCHIFAT 1 25 Jul 11:39:57 11:42:14 14° 66° (ENE) 11:44:31 145.980
POLYITAN 1 25 Jul 11:41:56 11:44:58 19° 68° (ENE) 11:48:01 437.675
Oscar 11 25 Jul 11:42:25 11:43:20 11° 295° (WNW) 11:44:16 .
QB50P2 25 Jul 11:54:14 11:57:56 29° 71° (ENE) 12:01:37 145.880/145.840
EO-79 25 Jul 12:05:57 12:09:51 36° 72° (ENE) 12:13:46 145.935-145.965
NANOSAT C BR1 25 Jul 12:05:57 12:09:44 32° 72° (ENE) 12:13:31 145.865
TIGRISAT 25 Jul 12:06:37 12:08:43 13° 268° (W) 12:10:49 435.000
AO-85 25 Jul 12:10:10 12:12:06 13° 110° (ESE) 12:14:00 145.980
M-CUBED/EXP-1 PRIME 25 Jul 12:11:29 12:13:18 13° 264° (W) 12:15:11 437.505
DELFI C3 25 Jul 12:19:03 12:21:05 14° 293° (WNW) 12:23:06 145.870
AIST 2D 25 Jul 12:26:22 12:29:42 42° 261° (W) 12:33:01 435.315
LO-87 25 Jul 12:44:33 12:48:09 73° 282° (WNW) 12:51:42 145.935 - 145.965
Oscar 19 25 Jul 12:45:10 12:46:21 11° 61° (ENE) 12:47:33 437.125/150
SPROUT 25 Jul 12:46:46 12:48:32 12° 92° (E) 12:50:20 437.525
ESTCUBE 1 25 Jul 12:47:23 12:51:52 59° 101° (E) 12:56:20 437.505/2401.250
BEESAT 3 25 Jul 12:47:34 12:51:13 36° 114° (ESE) 12:54:54 437.485
NO-84 25 Jul 12:54:51 12:56:34 14° 329° (NNW) 12:58:21 435.350 FM
Gurwin Techsat 1B 25 Jul 13:11:57 13:14:30 14° 62° (ENE) 13:17:01 435.225
DUCHIFAT 1 25 Jul 13:13:29 13:17:30 42° 261° (W) 13:21:33 145.980
POLYITAN 1 25 Jul 13:16:43 13:20:30 31° 263° (W) 13:24:19 437.675
BEESAT 2 25 Jul 13:28:07 13:31:40 32° 113° (ESE) 13:35:17 435.950
QB50P2 25 Jul 13:30:32 13:33:41 20° 265° (W) 13:36:52 145.880/145.840
VELOX 1 25 Jul 13:32:03 13:36:11 37° 98° (E) 13:40:18 145.980
DX 1 25 Jul 13:38:43 13:40:16 12° 92° (E) 13:41:49 434.975-435.025
BUGSAT 1 25 Jul 13:40:43 13:44:57 78° 258° (WSW) 13:49:12 437.445
NANOSAT C BR1 25 Jul 13:42:33 13:45:28 18° 266° (W) 13:48:24 145.865
EO-79 25 Jul 13:43:01 13:45:42 16° 266° (W) 13:48:22 145.935-145.965
50 SAT 25 Jul 13:45:31 13:47:54 18° 95° (E) 13:50:17 437.505
AO-85 25 Jul 13:48:18 13:52:07 41° 304° (WNW) 13:55:51 145.980
RS-15 25 Jul 14:13:32 14:17:14 12° 94° (E) 14:20:57 29.354- 29.394
UKube-1 25 Jul 14:19:01 14:22:27 23° 96° (E) 14:25:52 .
Oscar 19 25 Jul 14:19:49 14:24:55 83° 258° (WSW) 14:30:04 437.125/150
SPROUT 25 Jul 14:20:35 14:24:39 46° 287° (WNW) 14:28:43 437.525
BEESAT 3 25 Jul 14:26:05 14:28:53 18° 310° (NW) 14:31:43 437.485
ESTCUBE 1 25 Jul 14:26:23 14:28:07 12° 296° (WNW) 14:29:51 437.505/2401.250
AO-7 25 Jul 14:34:40 14:40:48 23° 56° (ENE) 14:46:57 .
Gurwin Techsat 1B 25 Jul 14:48:29 14:53:47 71° 258° (WSW) 14:59:06 435.225
PCSat 25 Jul 15:05:38 15:11:02 64° 61° (ENE) 15:16:23 145.827
BEESAT 2 25 Jul 15:06:31 15:09:28 20° 310° (NW) 15:12:28 435.950
O/OREOS (USA 219) 25 Jul 15:06:35 15:09:59 21° 101° (ESE) 15:13:23 437.305
VELOX 1 25 Jul 15:09:18 15:12:19 18° 293° (WNW) 15:15:19 145.980
SO-50 25 Jul 15:09:19 15:12:41 20° 49° (NE) 15:16:04 436.795
DX 1 25 Jul 15:12:27 15:16:43 52° 286° (WNW) 15:20:58 434.975-435.025
50 SAT 25 Jul 15:17:56 15:20:32 20° 289° (WNW) 15:23:06 437.505
UKube-1 25 Jul 15:54:46 15:58:24 27° 290° (WNW) 16:02:01 .
BEESAT 25 Jul 16:00:25 16:04:33 29° 97° (E) 16:08:41 436.000
ITAMSAT 1 25 Jul 16:12:00 16:17:13 84° 75° (ENE) 16:22:28 435.822/435.867
ITUPSAT 1 25 Jul 16:13:40 16:18:09 40° 99° (E) 16:22:36 437.325
RS-15 25 Jul 16:15:19 16:27:14 67° 113° (ESE) 16:39:24 29.354- 29.394
AO-7 25 Jul 16:24:21 16:32:42 76° 254° (WSW) 16:41:07 .
O/OREOS (USA 219) 25 Jul 16:45:14 16:49:11 30° 297° (WNW) 16:53:07 437.305
SO-50 25 Jul 16:48:59 16:53:18 43° 245° (WSW) 16:57:38 436.795
PCSat 25 Jul 16:50:54 16:53:48 15° 257° (WSW) 16:56:41 145.827
MOZHAYETS 4 25 Jul 16:57:05 17:01:39 85° 287° (WNW) 17:06:13
CUBESAT XI-V 25 Jul 17:32:55 17:37:22 42° 99° (E) 17:41:47 437.345
KKS-1 25 Jul 17:35:33 17:39:02 22° 95° (E) 17:42:29 437.445
BEESAT 25 Jul 17:38:19 17:42:10 25° 292° (WNW) 17:46:00 436.000
NO-84 25 Jul 17:51:22 17:53:51 16° 33° (NNE) 17:56:25 435.350 FM
ITUPSAT 1 25 Jul 17:52:21 17:55:38 19° 294° (WNW) 17:58:55 437.325
LilacSat-2 25 Jul 17:54:59 17:57:12 15° 69° (ENE) 17:59:26 437.200
CUTE-I 25 Jul 18:04:02 18:08:15 24° 66° (ENE) 18:12:29 437.470
STARS 25 Jul 18:04:17 18:07:19 18° 94° (E) 18:10:19 437.465
YUBILEINY 25 Jul 18:05:42 18:11:06 18° 79° (E) 18:16:32 435.215
XW-2F 25 Jul 18:07:56 18:10:38 19° 70° (ENE) 18:13:21 145.980 - 146.000
DOVE 4 25 Jul 18:14:56 18:19:45 83° 78° (ENE) 18:24:54 437.250
AO-7 25 Jul 18:24:00 18:26:35 12° 270° (W) 18:29:12 .
RS-15 25 Jul 18:29:21 18:40:31 39° 316° (NW) 18:51:52 29.354- 29.394
XW-2D 25 Jul 18:36:00 18:39:38 49° 75° (ENE) 18:43:16 145.860 - 145.880
XW-2B 25 Jul 18:45:59 18:49:42 66° 76° (ENE) 18:53:25 145.730 - 145.750
HO-68 25 Jul 18:55:44 19:01:46 30° 63° (ENE) 19:07:47 435.675
XW-2C 25 Jul 19:03:21 19:07:05 69° 259° (W) 19:10:49 145.795 - 145.815
NUDT-PHONESAT 25 Jul 19:08:54 19:12:35 82° 260° (W) 19:16:16 437.300
CUBESAT XI-V 25 Jul 19:11:18 19:14:22 18° 293° (WNW) 19:17:27 437.345
KKS-1 25 Jul 19:11:41 19:15:33 29° 290° (WNW) 19:19:23 437.445
CUBEBUG 2 25 Jul 19:22:47 19:25:36 16° 67° (ENE) 19:28:24 437.445
KAITUO 1B 25 Jul 19:24:17 19:27:50 47° 260° (W) 19:31:25 145.475/437.950
NO-84 25 Jul 19:27:43 19:31:41 75° 227° (SW) 19:35:53 435.350 FM
LilacSat-2 25 Jul 19:27:52 19:31:12 30° 263° (W) 19:34:33 437.200
CUTE 1.7 + AOD 2 25 Jul 19:36:01 19:39:53 38° 73° (ENE) 19:43:47 437.475
STARS 25 Jul 19:39:44 19:43:42 34° 289° (WNW) 19:47:39 437.465
XW-2F 25 Jul 19:41:38 19:44:37 22° 264° (W) 19:47:35 145.980 - 146.000
CUTE-I 25 Jul 19:43:03 19:48:02 39° 262° (W) 19:53:02 437.470
SEEDS 25 Jul 19:47:19 19:51:00 32° 72° (ENE) 19:54:41 437.485
YUBILEINY 25 Jul 19:57:55 20:06:46 81° 277° (W) 20:15:39 435.215
ISS 25 Jul 20:12:09 20:14:29 18° 130° (SE) 20:16:49 437.550
XW-2A 25 Jul 20:17:32 20:20:55 79° 78° (ENE) 20:24:18 145.665 - 145.685
UWE-3 25 Jul 20:18:01 20:22:12 36° 72° (ENE) 20:26:17 435.000/436.395/437.385
Tancredo 1 25 Jul 20:25:20 20:28:14 85° 312° (NW) 20:31:11 437.200
AAUSAT CUBESAT 2 25 Jul 20:28:47 20:32:40 43° 74° (ENE) 20:36:34 437.432
ZACube-1 25 Jul 20:30:53 20:34:35 26° 71° (ENE) 20:38:15 437.345
STRAND 1 25 Jul 20:35:14 20:40:11 48° 100° (E) 20:45:04 437.568
HO-68 25 Jul 20:42:17 20:49:09 48° 260° (W) 20:56:03 435.675
RS-15 25 Jul 20:51:04 20:58:08 16° 348° (NNW) 21:05:10 29.354- 29.394
nSIGHT-1 25 Jul 20:52:46 20:55:56 58° 136° (SE) 20:59:06 .
Oscar 11 25 Jul 20:55:42 20:59:32 33° 72° (ENE) 21:03:23 .
CUBEBUG 2 25 Jul 20:57:17 21:01:49 46° 261° (W) 21:06:17 437.445
BEESAT 3 25 Jul 21:08:15 21:09:38 11° 46° (NE) 21:11:01 437.485
AO-73 25 Jul 21:09:54 21:14:18 67° 76° (ENE) 21:18:37 145.935
CUTE 1.7 + AOD 2 25 Jul 21:13:33 21:15:51 14° 267° (W) 21:18:09 437.475
SEEDS 25 Jul 21:23:58 21:26:43 17° 266° (W) 21:29:28 437.485
DELFI C3 25 Jul 21:26:43 21:29:10 16° 68° (ENE) 21:31:37 145.870
EO-88 25 Jul 21:44:06 21:46:09 14° 69° (ENE) 21:48:11 145.990 - 145.960
ISS 25 Jul 21:47:44 21:50:45 35° 324° (NW) 21:53:47 437.550
BEESAT 2 25 Jul 21:49:45 21:50:57 11° 45° (NE) 21:52:09 435.950
UWE-3 25 Jul 21:55:30 21:58:41 19° 266° (W) 22:01:51 435.000/436.395/437.385
